FW0954 Weather Reports


Display with metric or nautical units.
time (UTC)temp
F
wind
direction
speed
MPH
gust
MPH
rain 1hr
in
rain 24hr
in
rain mn
in
humidity
%
barometer
mb
20260902234002 94 84 1.0 5.0 0.00 0.00 0.00 56 1011.5
20260902233502 95 91 1.0 6.0 0.00 0.00 0.00 56 1011.5
20260902232501 95 88 1.0 4.0 0.00 0.00 0.00 55 1011.4
20260902232002 95 96 1.0 4.0 0.00 0.00 0.00 55 1011.5
20260902231502 95 101 1.0 4.0 0.00 0.00 0.00 55 1011.5
20260902231002 96 99 1.0 5.0 0.00 0.00 0.00 54 1011.5
20260902230502 96 100 1.0 5.0 0.00 0.00 0.00 55 1011.6
20260902230002 96 94 1.0 4.0 0.00 0.00 0.00 55 1011.5
20260902225501 96 92 0.0 3.0 0.00 0.00 0.00 54 1011.4
20260902225001 96 90 0.0 4.0 0.00 0.00 0.00 52 1011.4
20260902224501 97 87 1.0 4.0 0.00 0.00 0.00 52 1011.4
20260902224002 97 84 1.0 5.0 0.00 0.00 0.00 53 1011.3
20260902223502 98 81 1.0 5.0 0.00 0.00 0.00 52 1011.2
20260902223002 99 82 1.0 5.0 0.00 0.00 0.00 52 1011.3
20260902222002 102 92 0.0 4.0 0.00 0.00 0.00 48 1011.2
20260902221502 102 108 1.0 6.0 0.00 0.00 0.00 47 1011.1
20260902221002 102 105 1.0 7.0 0.00 0.00 0.00 47 1011.1
20260902220502 101 95 1.0 7.0 0.00 0.00 0.00 46 1011.3
20260902220002 102 104 1.0 6.0 0.00 0.00 0.00 47 1011.2
20260902215502 101 112 1.0 3.0 0.00 0.00 0.00 48 1011.2
20260902215001 102 118 0.0 3.0 0.00 0.00 0.00 47 1011.3
20260902214502 102 118 0.0 3.0 0.00 0.00 0.00 46 1011.3
20260902214001 102 97 1.0 3.0 0.00 0.00 0.00 46 1011.5
20260902213502 102 91 1.0 4.0 0.00 0.00 0.00 47 1011.5
20260902213002 102 103 1.0 4.0 0.00 0.00 0.00 47 1011.6
20260902212501 102 92 1.0 4.0 0.00 0.00 0.00 46 1011.6
20260902212002 102 89 1.0 5.0 0.00 0.00 0.00 47 1011.7
20260902211502 102 91 1.0 5.0 0.00 0.00 0.00 47 1011.7
20260902211002 102 84 0.0 4.0 0.00 0.00 0.00 48 1011.7
20260902210502 102 116 1.0 4.0 0.00 0.00 0.00 48 1011.8
20260902205502 102 105 1.0 4.0 0.00 0.00 0.00 47 1011.8
20260902205002 102 102 1.0 4.0 0.00 0.00 0.00 47 1011.8
20260902204002 102 110 1.0 6.0 0.00 0.00 0.00 48 1012.0
20260902203002 102 110 0.0 2.0 0.00 0.00 0.00 47 1012.2
20260902202503 101 53 0.0 1.0 0.00 0.00 0.00 47 1012.5
20260902202002 100 72 0.0 3.0 0.00 0.00 0.00 48 1012.4
20260902201502 100 94 1.0 4.0 0.00 0.00 0.00 48 1012.6
20260902201002 100 99 1.0 4.0 0.00 0.00 0.00 48 1012.6
20260902200502 100 103 1.0 5.0 0.00 0.00 0.00 47 1012.8
20260902200003 101 107 1.0 5.0 0.00 0.00 0.00 47 1013.0
20260902195502 101 128 1.0 5.0 0.00 0.00 0.00 47 1013.1
20260902195002 101 118 1.0 5.0 0.00 0.00 0.00 47 1013.1
20260902194001 102 144 0.0 3.0 0.00 0.00 0.00 47 1013.3
20260902193502 101 270 1.0 3.0 0.00 0.00 0.00 47 1013.3
20260902193002 100 49 1.0 4.0 0.00 0.00 0.00 49 1013.3
20260902191002 100 125 1.0 7.0 0.00 0.00 0.00 48 1013.7
20260902190502 100 120 1.0 7.0 0.00 0.00 0.00 47 1013.7
20260902190002 100 99 1.0 5.0 0.00 0.00 0.00 48 1013.8
20260902185502 100 103 1.0 5.0 0.00 0.00 0.00 49 1013.9
20260902185002 99 98 1.0 3.0 0.00 0.00 0.00 50 1013.9
20260902184502 100 117 1.0 4.0 0.00 0.00 0.00 50 1014.0
20260902183503 99 80 1.0 4.0 0.00 0.00 0.00 50 1014.1
20260902183002 98 97 1.0 4.0 0.00 0.00 0.00 50 1014.3
20260902182502 98 110 1.0 3.0 0.00 0.00 0.00 51 1014.3
20260902182002 98 94 1.0 4.0 0.00 0.00 0.00 52 1014.4
20260902181502 97 88 1.0 4.0 0.00 0.00 0.00 53 1014.6
20260902181002 98 83 1.0 4.0 0.00 0.00 0.00 53 1014.8
20260902180502 97 90 1.0 5.0 0.00 0.00 0.00 54 1014.9
20260902180005 97 94 1.0 5.0 0.00 0.00 0.00 54 1015.0
20260902175502 97 98 0.0 3.0 0.00 0.00 0.00 55 1015.3
20260902175002 97 106 0.0 3.0 0.00 0.00 0.00 55 1015.3
20260902174502 96 82 0.0 1.0 0.00 0.00 0.00 57 1015.4
20260902173002 96 328 0.0 3.0 0.00 0.00 0.00 58 1015.5
20260902172502 96 74 0.0 1.0 0.00 0.00 0.00 59 1015.5
20260902172002 95 109 0.0 3.0 0.00 0.00 0.00 59 1015.6
20260902171502 94 122 0.0 3.0 0.00 0.00 0.00 60 1015.7
20260902171002 94 14 0.0 2.0 0.00 0.00 0.00 61 1015.9
20260902170503 93 344 0.0 2.0 0.00 0.00 0.00 62 1015.9
20260902170002 93 345 0.0 3.0 0.00 0.00 0.00 62 1016.0
20260902165003 93 20 0.0 2.0 0.00 0.00 0.00 62 1016.1
20260902164502 94 160 0.0 3.0 0.00 0.00 0.00 62 1016.2
20260902164002 93 175 1.0 4.0 0.00 0.00 0.00 64 1016.3
20260902163502 92 151 0.0 4.0 0.00 0.00 0.00 64 1016.4
20260902163002 92 95 0.0 2.0 0.00 0.00 0.00 63 1016.4
20260902162503 92 164 0.0 3.0 0.00 0.00 0.00 64 1016.4
20260902162002 92 167 1.0 3.0 0.00 0.00 0.00 64 1016.3
20260902161503 91 166 1.0 3.0 0.00 0.00 0.00 65 1016.3
20260902161002 91 179 1.0 4.0 0.00 0.00 0.00 66 1016.4
20260902160502 91 166 0.0 4.0 0.00 0.00 0.00 66 1016.4
20260902160003 91 129 0.0 3.0 0.00 0.00 0.00 68 1016.3
20260902155502 90 159 0.0 2.0 0.00 0.00 0.00 68 1016.4
20260902155003 90 165 0.0 2.0 0.00 0.00 0.00 69 1016.4
20260902154503 89 120 0.0 2.0 0.00 0.00 0.00 71 1016.4
20260902154002 89 106 0.0 2.0 0.00 0.00 0.00 70 1016.4
20260902153502 89 98 0.0 2.0 0.00 0.00 0.00 70 1016.4
20260902153003 89 80 0.0 2.0 0.00 0.00 0.00 70 1016.4
20260902152502 89 83 0.0 2.0 0.00 0.00 0.00 71 1016.5
20260902151503 88 109 0.0 4.0 0.00 0.00 0.00 72 1016.4
20260902151003 88 95 0.0 4.0 0.00 0.00 0.00 72 1016.3
20260902150503 88 122 0.0 4.0 0.00 0.00 0.00 72 1016.4
20260902150002 87 124 1.0 4.0 0.00 0.00 0.00 72 1016.3
20260902145502 87 92 1.0 3.0 0.00 0.00 0.00 73 1016.3
20260902144002 87 116 0.0 3.0 0.00 0.00 0.00 73 1016.3
20260902143502 87 135 0.0 3.0 0.00 0.00 0.00 74 1016.3
20260902143003 86 88 0.0 4.0 0.00 0.00 0.00 74 1016.3
20260902142003 86 122 0.0 2.0 0.00 0.00 0.00 75 1016.3
20260902141502 86 116 0.0 3.0 0.00 0.00 0.00 75 1016.2
20260902141003 86 119 0.0 3.0 0.00 0.00 0.00 76 1016.2
20260902140502 85 170 0.0 3.0 0.00 0.00 0.00 76 1016.2
20260902140003 84 171 0.0 3.0 0.00 0.00 0.00 77 1016.1
20260902135003 84 140 0.0 1.0 0.00 0.00 0.00 78 1016.2
20260902134502 83 141 0.0 1.0 0.00 0.00 0.00 79 1016.1
20260902134003 82 133 0.0 1.0 0.00 0.00 0.00 80 1016.0
20260902133502 81 115 0.0 1.0 0.00 0.00 0.00 81 1015.9
20260902133003 81 128 0.0 2.0 0.00 0.00 0.00 81 1016.0
20260902132503 80 135 0.0 2.0 0.00 0.00 0.00 81 1015.9
20260902132003 80 96 0.0 2.0 0.00 0.00 0.00 82 1016.0
20260902131502 80 79 0.0 3.0 0.00 0.00 0.00 82 1016.0
20260902131003 80 68 0.0 3.0 0.00 0.00 0.00 83 1015.9
20260902130502 79 100 0.0 2.0 0.00 0.00 0.00 84 1015.9
20260902130003 79 149 0.0 2.0 0.00 0.00 0.00 84 1015.9
20260902125502 79 134 0.0 2.0 0.00 0.00 0.00 85 1015.9
20260902125003 79 107 0.0 2.0 0.00 0.00 0.00 85 1015.9
20260902124002 78 106 0.0 2.0 0.00 0.00 0.00 85 1016.0
20260902123503 78 114 0.0 2.0 0.00 0.00 0.00 86 1015.8
20260902123003 78 137 0.0 1.0 0.00 0.00 0.00 86 1015.8
20260902122502 77 137 0.0 1.0 0.00 0.00 0.00 86 1015.7
20260902122003 77 137 0.0 1.0 0.00 0.00 0.00 86 1015.8
20260902121503 77 0 0.0 0.0 0.00 0.00 0.00 86 1015.8
20260902120503 77 0 0.0 0.0 0.00 0.00 0.00 86 1015.8
20260902120003 77 0 0.0 0.0 0.00 0.00 0.00 86 1015.7
20260902115503 77 0 0.0 0.0 0.00 0.00 0.00 86 1015.7
20260902115003 77 0 0.0 0.0 0.00 0.00 0.00 86 1015.6
20260902114502 77 0 0.0 0.0 0.00 0.00 0.00 86 1015.6
20260902114003 77 166 0.0 1.0 0.00 0.00 0.00 87 1015.6
20260902113003 77 0 0.0 0.0 0.00 0.00 0.00 87 1015.8
20260902112503 77 0 0.0 0.0 0.00 0.00 0.00 87 1015.8
20260902112003 77 0 0.0 0.0 0.00 0.00 0.00 87 1015.7
20260902111503 77 0 0.0 0.0 0.00 0.00 0.00 86 1015.7
20260902111003 77 0 0.0 0.0 0.00 0.00 0.00 86 1015.7
20260902110503 77 0 0.0 0.0 0.00 0.00 0.00 86 1015.6
20260902105503 77 0 0.0 0.0 0.00 0.00 0.00 86 1015.7
20260902105003 77 0 0.0 0.0 0.00 0.00 0.00 85 1015.7
20260902104504 77 0 0.0 0.0 0.00 0.00 0.00 85 1015.6
20260902104003 77 0 0.0 0.0 0.00 0.00 0.00 85 1015.5
20260902103503 77 0 0.0 0.0 0.00 0.00 0.00 85 1015.5
20260902103003 77 0 0.0 0.0 0.00 0.00 0.00 84 1015.6
20260902102503 77 0 0.0 0.0 0.00 0.00 0.00 84 1015.6
20260902102003 77 0 0.0 0.0 0.00 0.00 0.00 84 1015.6
20260902101003 77 0 0.0 0.0 0.00 0.00 0.00 84 1015.6
20260902100503 77 0 0.0 0.0 0.00 0.00 0.00 84 1015.6
20260902100003 77 0 0.0 0.0 0.00 0.00 0.00 84 1015.6
20260902095002 78 0 0.0 0.0 0.00 0.00 0.00 83 1015.6
20260902094503 78 0 0.0 0.0 0.00 0.00 0.00 83 1015.6
20260902093503 78 0 0.0 0.0 0.00 0.00 0.00 83 1015.5
20260902093003 78 0 0.0 0.0 0.00 0.00 0.00 82 1015.5
20260902092502 78 0 0.0 0.0 0.00 0.00 0.00 82 1015.5
20260902092003 78 0 0.0 0.0 0.00 0.00 0.00 82 1015.4
20260902091503 78 0 0.0 0.0 0.00 0.00 0.00 82 1015.4
20260902091003 79 0 0.0 0.0 0.00 0.00 0.00 82 1015.4
20260902090503 79 0 0.0 0.0 0.00 0.00 0.00 82 1015.4
20260902090004 79 0 0.0 0.0 0.00 0.00 0.00 81 1015.4
20260902085503 79 0 0.0 0.0 0.00 0.00 0.00 80 1015.3
20260902085003 79 0 0.0 0.0 0.00 0.00 0.00 80 1015.3
20260902084503 79 0 0.0 0.0 0.00 0.00 0.00 80 1015.3
20260902083503 80 0 0.0 0.0 0.00 0.00 0.00 80 1015.3
20260902083003 80 0 0.0 0.0 0.00 0.00 0.00 79 1015.3
20260902082503 80 0 0.0 0.0 0.00 0.00 0.00 79 1015.4
20260902081503 80 0 0.0 0.0 0.00 0.00 0.00 79 1015.3
20260902080504 81 167 0.0 2.0 0.00 0.00 0.00 79 1015.3
20260902080003 81 163 0.0 2.0 0.00 0.00 0.00 79 1015.3
20260902075003 81 182 0.0 1.0 0.00 0.00 0.00 79 1015.4
20260902074503 81 182 0.0 1.0 0.00 0.00 0.00 79 1015.4
20260902074003 81 182 0.0 1.0 0.00 0.00 0.00 79 1015.4
20260902073504 81 182 0.0 1.0 0.00 0.00 0.00 79 1015.4
20260902073003 81 182 0.0 1.0 0.00 0.00 0.00 79 1015.3
20260902072503 81 0 0.0 0.0 0.00 0.00 0.00 79 1015.5
20260902072003 81 182 0.0 1.0 0.00 0.00 0.00 78 1015.5
20260902071503 81 182 0.0 2.0 0.00 0.00 0.00 78 1015.4
20260902070504 82 182 0.0 1.0 0.00 0.00 0.00 78 1015.5
20260902065503 82 0 0.0 0.0 0.00 0.00 0.00 77 1015.6
20260902064503 82 182 0.0 2.0 0.00 0.00 0.00 77 1015.6
20260902064003 82 182 0.0 2.0 0.00 0.00 0.00 77 1015.6
20260902063504 82 182 0.0 1.0 0.00 0.00 0.00 76 1015.5
20260902063003 83 179 0.0 2.0 0.00 0.00 0.00 76 1015.5
20260902062503 83 175 0.0 2.0 0.00 0.00 0.00 76 1015.5
20260902062004 83 178 0.0 4.0 0.00 0.00 0.00 76 1015.4
20260902061003 83 176 0.0 2.0 0.00 0.00 0.00 75 1015.5
20260902060503 83 173 0.0 2.0 0.00 0.00 0.00 75 1015.4
20260902060003 84 174 0.0 2.0 0.00 0.00 0.00 75 1015.4
20260902055503 84 171 0.0 2.0 0.00 0.00 0.00 74 1015.5
20260902055004 84 176 0.0 3.0 0.00 0.00 0.00 74 1015.4
20260902054503 84 181 1.0 3.0 0.00 0.00 0.00 74 1015.5
20260902054003 84 182 1.0 3.0 0.00 0.00 0.00 74 1015.5
20260902053504 84 177 1.0 4.0 0.00 0.00 0.00 73 1015.4
20260902053003 84 176 1.0 4.0 0.00 0.00 0.00 73 1015.4
20260902052502 84 174 1.0 4.0 0.00 0.00 0.00 73 1015.4
20260902052001 84 175 1.0 3.0 0.00 0.00 0.00 73 1015.4
20260902051501 85 191 0.0 4.0 0.00 0.00 0.00 72 1015.3
20260902050501 85 195 0.0 2.0 0.00 0.00 0.00 72 1015.4
20260902050004 85 173 0.0 2.0 0.00 0.00 0.00 71 1015.5
20260902045002 86 168 1.0 5.0 0.00 0.00 0.00 71 1015.4
20260902044501 86 173 1.0 5.0 0.00 0.00 0.00 70 1015.3
20260902044001 86 177 1.0 4.0 0.00 0.00 0.00 70 1015.3
20260902043501 86 181 1.0 4.0 0.00 0.00 0.00 70 1015.3
20260902043001 86 173 1.0 4.0 0.00 0.00 0.00 69 1015.3
20260902042502 87 172 1.0 4.0 0.00 0.00 0.00 69 1015.3
20260902042001 87 181 1.0 6.0 0.00 0.00 0.00 69 1015.3
20260902041502 87 185 2.0 6.0 0.00 0.00 0.00 68 1015.3
20260902040001 87 172 2.0 7.0 0.00 0.00 0.00 67 1015.2
20260902035501 88 175 2.0 6.0 0.00 0.00 0.00 66 1015.1
20260902035002 88 169 2.0 6.0 0.00 0.00 0.00 66 1014.9
20260902034502 88 166 3.0 9.0 0.00 0.00 0.00 66 1015.1
20260902034001 88 166 2.0 9.0 0.00 0.00 0.00 66 1015.0
20260902033502 88 157 2.0 8.0 0.00 0.00 0.00 66 1014.8
20260902033001 87 149 1.0 8.0 0.00 0.00 0.00 68 1014.7
20260902032501 87 168 0.0 5.0 0.00 0.00 0.00 71 1014.7
20260902032001 87 0 0.0 0.0 0.00 0.00 0.00 69 1014.4
20260902031501 87 0 0.0 0.0 0.00 0.00 0.00 68 1014.3
20260902031001 87 0 0.0 0.0 0.00 0.00 0.00 66 1014.3
20260902030501 88 0 0.0 0.0 0.00 0.00 0.00 65 1014.2
20260902030002 88 0 0.0 0.0 0.00 0.00 0.00 65 1014.2
20260902025501 88 0 0.0 0.0 0.00 0.00 0.00 64 1014.1
20260902025001 88 0 0.0 0.0 0.00 0.00 0.00 63 1014.0
20260902024502 89 0 0.0 0.0 0.00 0.00 0.00 62 1014.1
20260902024001 89 0 0.0 0.0 0.00 0.00 0.00 61 1014.0
20260902023002 90 0 0.0 0.0 0.00 0.00 0.00 61 1013.9
20260902022502 90 182 0.0 2.0 0.00 0.00 0.00 60 1013.8
20260902022002 91 176 0.0 2.0 0.00 0.00 0.00 60 1013.7
20260902021501 91 187 0.0 3.0 0.00 0.00 0.00 60 1013.6
20260902021002 91 168 0.0 3.0 0.00 0.00 0.00 59 1013.6
20260902015501 92 159 1.0 7.0 0.00 0.00 0.00 59 1013.4
20260902015001 92 103 0.0 2.0 0.00 0.00 0.00 59 1013.3
20260902014501 92 103 0.0 2.0 0.00 0.00 0.00 58 1013.3
20260902013501 93 85 0.0 2.0 0.00 0.00 0.00 57 1013.2
20260902012001 92 99 0.0 4.0 0.00 0.00 0.00 57 1013.1
20260902011502 92 117 0.0 4.0 0.00 0.00 0.00 57 1013.0
20260902010501 92 113 0.0 2.0 0.00 0.00 0.00 58 1012.9
20260902010001 92 111 0.0 2.0 0.00 0.00 0.00 59 1012.9
20260902005501 92 80 0.0 3.0 0.00 0.00 0.00 58 1013.0
20260902005002 92 66 0.0 3.0 0.00 0.00 0.00 58 1013.0
20260902004502 93 90 0.0 1.0 0.00 0.00 0.00 58 1013.1
20260902004002 94 0 0.0 0.0 0.00 0.00 0.00 56 1012.8
20260902003501 94 0 0.0 0.0 0.00 0.00 0.00 55 1012.9
20260902003001 94 0 0.0 0.0 0.00 0.00 0.00 54 1012.9
20260902002502 95 0 0.0 0.0 0.00 0.00 0.00 54 1013.0
20260902002002 95 0 0.0 0.0 0.00 0.00 0.00 54 1012.9
20260902001502 95 0 0.0 0.0 0.00 0.00 0.00 54 1012.9
20260902001002 96 0 0.0 0.0 0.00 0.00 0.00 53 1013.0
20260902000502 96 0 0.0 0.0 0.00 0.00 0.00 54 1013.1
20260902000002 96 0 0.0 0.0 0.00 0.00 0.00 53 1013.1